星链-1781 (STARLINK-1781 )

导读 | 豆包AI

STARLINK-1781是美国太空探索技术公司Starlink星座的一员,于2020年10月18日发射升空,属于该星座早期组网卫星,旨在为全球提供低延迟、高速率的宽带互联网服务,填补偏远地区网络覆盖空白。作为低轨卫星,它运行在近地轨道,通过星间链路构建全球卫星互联网络,服务个人、企业与行业客户,推动全球互联互通。

基本信息
目录编号:
46685
目录名称:
STARLINK-1781
国际标识:
2020-073R
轨道中心:
EARTH
卫星名称:
星链-1781
卫星全名:
星链-1781 (STARLINK-1781 )
卫星状态:
在轨 (已飞行1973 天)
发射日期:
2020-10-18 UTC
国别 :
美国 (US)
星等 :
--
轨道信息
数据来源 国际轨道数据
星历时间: 2026-03-14T08:00:02+0800
8小时前
查看轨道信息
半长轴: 6776.139km
偏心率: 0.0003377
轨道倾角: 53.051°
近地点辐角 312.260°
升交点赤经 222.451°
平近点角 15.983°
近地点: 395.713km
远地点: 400.291km
周期: 92.519分钟
每日圈数: 15.564292
详细信息
固有亮度:
5
最大亮度:
2.5
卫星平台:
Starlink V1.0
覆盖范围:
全球
运营商:
太空探索技术公司
运营商所在国:
美国
制造商(研发单位):
太空探索技术公司
制造商所在国:
美国
使用方式:
暂无
卫星简介
星链(Starlink)计划是由太空探索技术公司(SpaceX)提出的一个巨型低轨卫星互联网星座项目,计划在2019年至2024年间在太空搭建由约1.2万颗卫星组成的“星链”网络,其中1584颗将部署在地球上空550千米处的近地轨道,并从2020年开始工作。该卫星仍在工作。
2D轨道图
3D轨道图
轨道高度分析图
轨道倾角分析图
轨道综合分析图
查看轨道综合分析图